User: anonymous   Login
Location: PACMO
(41.3967°N, 90.3760°W)
Time: 11:43:09
(UTC-05:00)
Language:

NOAA 19 - Orbit

View from above orbital plane
View from above orbital plane
View from above satellite
View from above satellite

Ground track
Ground track

The orbit data is extracted from the following two-line orbital elements,

1 33591U 09005A   15108.49859946  .00000325  00000-0  20210-3 0  9992
2 33591 098.9847 058.2521 0013795 343.1510 016.9201 14.11913618319066
Epoch (UTC): 18 April 2015 11:57:58
Eccentricity: 0.0013795
inclination: 98.9847°
perigee height: 843 km
apogee height: 863 km
right ascension of ascending node: 58.2521°
argument of perigee: 343.1510°
revolutions per day: 14.11913618
mean anomaly at epoch: 16.9201°
orbit number at epoch: 31906

The dashed part of the orbit path shows where the satellite is in the earth's shadow,  

DLR